Zurück zum Katalog

STARLINK-35897

AktivKommunikationVLEO
NORAD 66501·PAYLOAD·🇺🇸 United States

Gestartet Nov 15, 2025 von Cape Canaveral Space Force Station

Loading…

Nächste Überflüge (nächste 24 Stunden)

TLE

AktuellSource: CelesTrak SupGP

Epoche: Sep 14, 2026, 22:34 UTC

1 66501C 25263S   26257.94076389 -.00013681  00000+0 -49550-3 0  2577
2 66501  43.0040   1.9481 0001630 272.6276  25.9345 15.27586478    18

Verfolge STARLINK-35897 in Echtzeit mit AllMySat

Download on the App Store